Wind_Speed
24 23 23 23 23 23 23 23 23 23 23 23 24 24 25 25 25 26 27 27 28 29 30 31 32 33 33 34 34 35 35 36 36 35 34 33 33 32 32 32 31 31 31
26 26 26 26 26 25 25 25 25 25 25 25 26 26 27 27 28 28 29 29 30 32 33 33 34 35 35 36 36 36 36 36 37 36 35 34 34 33 33 32 32 32 32
28 28 28 28 28 27 27 27 28 28 28 28 28 28 29 30 30 30 31 32 32 34 35 36 36 37 37 37 37 37 37 37 37 36 35 35 35 34 34 33 33 33 32
30 30 30 30 30 30 30 30 30 30 30 30 30 31 31 32 33 33 34 35 35 36 37 38 38 38 38 38 38 38 38 38 37 37 36 36 35 35 34 34 33 33 32
32 32 32 33 32 32 32 32 32 32 32 33 33 33 34 35 36 37 37 38 38 39 40 40 40 40 39 39 39 39 38 38 37 36 37 36 36 35 35 34 34 32 31
35 34 34 34 34 34 34 35 35 35 35 36 36 36 36 37 38 38 39 40 41 41 42 42 42 41 40 40 40 39 39 38 37 36 37 36 36 36 35 34 33 32 31
37 37 36 36 37 37 37 37 38 38 38 39 39 39 39 39 40 41 42 43 43 44 44 44 44 43 42 41 40 40 39 38 37 37 37 37 36 35 35 34 33 32 31
40 40 39 39 39 39 39 40 40 40 40 41 41 41 40 41 42 43 44 45 45 45 45 45 44 43 42 42 41 40 39 38 38 38 37 36 35 35 34 33 32 31 30
42 42 42 43 43 43 42 42 42 42 42 43 43 44 44 44 44 44 45 45 46 45 45 45 44 43 42 42 42 40 39 39 38 37 36 35 34 34 33 32 31 30 30
45 45 45 46 46 45 45 44 44 44 44 44 45 46 46 46 47 46 46 46 45 45 45 44 43 42 42 42 41 40 40 39 38 37 36 35 34 33 32 30 30 29 29
47 46 46 47 47 47 46 46 46 46 46 46 47 47 47 48 48 48 47 46 45 45 44 44 43 42 42 42 41 40 40 39 38 37 36 35 33 32 30 29 29 28 28
49 48 48 48 48 48 47 47 47 47 47 47 47 48 48 48 48 48 47 46 45 45 44 44 43 43 42 41 40 40 39 38 37 36 35 34 32 30 29 28 28 28 27
49 49 49 49 49 49 48 48 48 48 48 48 48 48 48 47 47 46 46 46 45 45 45 44 43 43 42 41 40 39 38 37 35 34 33 32 31 29 28 28 27 27 27
51 50 49 49 49 49 49 49 49 49 48 48 48 47 47 46 46 45 45 45 45 45 44 43 42 41 41 40 39 38 37 36 34 33 32 31 29 28 28 28 27 27 26
50 50 49 50 50 50 49 49 49 49 49 49 48 47 46 46 45 45 45 45 45 44 43 42 42 41 41 39 38 37 36 35 34 32 31 29 28 28 27 27 26 26 26
50 49 50 51 51 51 51 50 51 51 50 49 48 48 47 46 45 45 45 45 44 43 42 42 41 40 39 38 37 36 35 34 32 30 29 28 28 27 26 26 26 25 25
50 49 50 50 50 51 51 50 50 49 49 48 48 47 47 46 46 45 45 44 44 43 42 41 40 39 38 37 36 35 34 32 30 29 28 27 27 26 26 25 25 25 25
49 49 49 48 48 48 48 47 47 47 47 47 46 46 46 45 45 45 44 44 44 43 42 41 39 38 37 35 34 33 32 31 30 28 28 27 27 26 26 26 25 25 25
47 47 47 47 47 47 47 47 46 46 46 46 46 45 45 45 45 44 44 43 43 42 41 40 39 37 36 35 33 32 31 30 29 28 27 27 27 26 26 26 26 26 26
45 46 46 46 46 46 45 45 45 45 45 45 44 44 43 43 43 43 42 41 41 40 40 39 37 35 34 32 31 31 30 29 28 28 27 27 26 26 26 26 27 27 27
44 44 44 45 45 44 44 43 43 44 44 44 43 43 42 42 42 41 40 40 39 38 37 36 34 32 31 30 30 30 29 28 28 27 27 26 26 26 26 27 27 28 28
43 43 43 43 43 42 42 42 42 42 42 42 41 41 41 41 40 39 38 38 36 35 34 33 32 31 30 30 29 28 28 27 27 27 27 26 27 27 27 28 28 29 29
42 42 41 41 41 40 41 41 41 41 41 40 40 39 39 38 37 37 36 35 34 33 32 31 30 30 29 28 28 28 27 28 27 27 27 27 27 27 28 29 29 30 30
40 41 41 40 40 40 40 39 39 39 39 39 38 37 36 35 35 34 34 33 32 32 31 30 29 29 28 28 28 28 28 28 28 27 27 28 28 28 29 30 30 31 31
39 39 39 39 38 38 38 38 38 37 37 36 36 34 34 34 33 33 32 32 31 30 29 29 28 28 27 28 28 28 28 28 28 28 28 28 29 29 30 31 31 31 32
37 37 37 37 37 37 37 36 36 35 35 34 33 33 33 33 32 31 30 30 29 29 28 28 28 28 27 27 27 27 28 28 28 29 29 29 30 30 31 32 32 32 33
Wind_Direction
258 260 262 263 265 267 270 273 276 278 282 285 288 290 293 295 297 298 300 302 304 306 308 310 310 311 312 313 313 313 312 312 312 312 310 309 307 307 306 304 303 303 303
259 261 262 264 267 269 271 274 276 279 282 284 287 289 291 293 295 296 298 300 302 304 306 307 308 309 310 311 310 310 310 310 310 310 308 307 306 305 304 302 301 302 301
260 262 264 266 269 271 273 275 276 278 280 282 285 287 289 291 293 294 296 298 300 302 304 305 306 307 308 308 307 307 308 309 309 308 306 305 304 304 303 301 300 301 300
263 264 265 267 269 271 273 274 276 279 280 282 284 286 288 290 292 293 295 297 298 299 301 303 304 305 305 305 305 305 306 306 306 305 304 303 302 302 302 300 299 300 299
264 266 267 268 269 271 273 274 277 279 280 282 284 285 287 290 291 293 294 296 297 298 299 301 302 303 304 304 303 304 304 304 303 302 302 301 301 300 300 299 298 298 298
266 268 270 270 270 272 274 275 277 278 280 282 284 285 287 289 291 293 294 294 295 297 298 300 301 302 303 302 302 302 302 302 301 300 300 299 298 298 298 297 297 297 296
265 267 269 270 272 273 274 276 277 278 280 281 283 284 286 287 289 291 292 293 294 296 297 299 300 300 301 300 300 301 301 300 299 299 299 298 297 297 297 295 296 296 295
265 266 268 270 272 273 275 277 278 278 280 281 283 283 284 286 288 290 292 293 294 295 296 297 298 298 298 299 299 299 299 298 298 298 297 297 296 296 295 294 294 294 295
265 265 268 270 272 274 275 276 277 278 280 281 283 284 284 285 287 288 290 291 292 293 294 295 296 296 296 296 297 297 296 296 296 296 296 295 295 294 294 294 293 293 294
265 267 268 270 272 273 275 276 277 278 279 281 283 284 285 286 287 287 287 289 289 290 292 292 293 293 294 295 295 295 295 295 295 295 295 294 294 293 293 292 292 292 292
266 267 269 270 271 273 275 276 278 278 279 281 283 284 285 286 288 288 288 288 288 290 291 291 292 292 293 294 293 293 293 293 293 293 293 293 292 292 291 291 291 291 291
265 267 269 270 272 273 274 277 278 279 280 281 282 283 285 286 287 287 287 287 288 289 290 290 291 291 292 292 292 292 292 292 291 292 292 291 291 291 290 290 290 290 289
265 267 268 270 272 274 276 278 279 280 281 281 283 284 285 285 285 285 286 287 287 288 289 289 289 290 290 290 290 291 291 290 290 290 290 289 289 289 289 289 288 288 287
266 268 270 272 273 274 276 277 278 280 281 282 283 283 283 283 284 284 285 286 286 287 288 288 288 288 288 289 288 289 289 289 289 289 289 288 288 288 288 288 288 288 287
267 268 270 272 273 274 276 277 278 279 281 281 282 282 283 283 283 283 284 285 285 286 286 286 286 286 287 287 287 288 288 288 289 288 288 287 287 287 287 287 287 287 287
266 268 269 271 273 274 275 277 278 279 280 280 280 280 281 281 282 283 283 284 284 285 285 285 284 284 284 285 285 286 287 287 286 286 287 286 286 286 286 287 287 287 285
264 266 269 271 273 275 276 276 277 277 278 279 279 280 281 281 281 281 282 281 282 283 283 283 283 283 283 283 284 285 285 285 285 285 285 285 285 286 286 286 286 286 285
265 266 268 269 271 273 275 275 276 277 278 279 279 279 279 280 280 280 280 280 281 281 282 282 281 280 280 281 282 283 284 284 283 283 283 283 284 285 285 286 286 286 285
265 267 268 270 272 273 274 275 276 277 278 278 279 279 279 279 279 279 279 280 280 280 280 280 280 279 278 278 280 281 281 282 282 282 282 282 283 284 285 286 286 285 285
266 267 269 271 272 273 274 275 276 277 277 278 278 278 278 278 278 278 278 279 279 279 278 278 278 277 276 277 278 278 279 280 280 281 281 281 282 284 285 286 287 287 287
266 267 269 270 271 272 273 274 276 276 277 277 277 277 277 277 277 277 277 278 278 277 277 276 275 275 274 275 276 277 277 278 279 279 279 280 282 284 285 286 288 289 289
264 266 267 269 270 271 273 274 275 276 276 277 277 277 277 277 277 276 276 276 275 275 275 274 273 273 273 274 275 275 276 277 278 278 279 281 283 284 285 286 288 289 290
263 265 267 269 270 272 273 274 275 276 276 276 277 277 277 276 276 275 275 274 273 273 273 273 272 271 271 273 273 274 275 276 277 278 279 281 282 283 285 287 289 290 290
263 265 267 269 270 271 273 275 276 276 276 276 276 276 275 275 275 274 273 272 271 271 271 271 269 270 271 272 273 274 275 275 276 278 279 281 282 284 286 288 290 291 291
265 266 268 269 271 272 274 275 275 276 275 275 274 274 274 274 274 273 272 270 270 270 270 269 268 269 271 272 273 274 274 275 276 278 279 281 283 285 287 288 290 291 292
265 267 269 270 271 272 274 275 275 275 275 274 273 273 274 273 273 272 271 270 268 268 268 268 269 270 271 272 273 274 275 276 277 278 280 281 284 286 288 289 290 291 292
Height
5865 5866 5866 5867 5867 5866 5866 5866 5865 5865 5864 5863 5862 5861 5859 5858 5856 5855 5853 5851 5849 5846 5844 5841 5838 5835 5832 5829 5825 5821 5818 5814 5811 5807 5804 5800 5797 5794 5791 5788 5785 5782 5780
5861 5861 5862 5862 5862 5862 5861 5861 5861 5860 5859 5858 5857 5856 5854 5853 5851 5850 5848 5845 5843 5841 5838 5835 5832 5829 5826 5823 5819 5815 5812 5808 5804 5801 5797 5794 5791 5788 5785 5782 5779 5776 5774
5855 5856 5856 5856 5856 5856 5856 5856 5855 5855 5854 5853 5852 5850 5849 5847 5846 5844 5842 5840 5837 5835 5832 5829 5826 5823 5820 5816 5812 5809 5805 5801 5798 5794 5791 5787 5784 5781 5778 5775 5772 5770 5767
5849 5850 5850 5850 5851 5851 5850 5850 5849 5849 5848 5847 5846 5844 5843 5841 5839 5837 5836 5833 5831 5828 5825 5822 5819 5816 5813 5809 5806 5802 5798 5794 5791 5787 5784 5781 5777 5774 5771 5768 5766 5763 5761
5842 5843 5843 5844 5844 5844 5844 5843 5843 5842 5841 5840 5839 5838 5836 5834 5832 5830 5828 5826 5823 5821 5818 5815 5812 5809 5805 5802 5798 5795 5791 5787 5784 5780 5777 5773 5770 5767 5764 5761 5759 5756 5754
5835 5836 5836 5836 5836 5836 5836 5836 5835 5835 5834 5833 5832 5830 5828 5826 5824 5822 5820 5818 5815 5813 5810 5807 5804 5801 5797 5794 5790 5787 5783 5780 5777 5773 5770 5766 5763 5760 5757 5754 5752 5749 5747
5827 5828 5828 5828 5828 5828 5828 5828 5827 5827 5825 5824 5824 5822 5820 5818 5816 5814 5812 5809 5807 5804 5801 5798 5795 5792 5789 5786 5782 5779 5775 5772 5769 5766 5762 5759 5755 5753 5750 5747 5745 5742 5740
5819 5819 5819 5820 5820 5820 5820 5819 5819 5818 5817 5815 5814 5813 5812 5811 5808 5805 5802 5800 5797 5795 5792 5789 5786 5783 5780 5777 5774 5770 5767 5764 5761 5758 5754 5751 5748 5745 5742 5740 5737 5735 5733
5810 5810 5810 5810 5810 5810 5810 5810 5809 5808 5808 5806 5805 5803 5802 5801 5799 5797 5793 5790 5788 5785 5783 5780 5777 5774 5771 5768 5765 5762 5759 5756 5752 5749 5746 5743 5740 5737 5735 5732 5730 5728 5726
5800 5800 5801 5801 5801 5800 5800 5800 5799 5798 5798 5797 5795 5793 5792 5790 5788 5787 5785 5781 5778 5776 5773 5770 5768 5765 5762 5759 5756 5753 5750 5747 5744 5741 5738 5735 5732 5730 5727 5725 5723 5721 5719
5789 5790 5790 5790 5790 5790 5790 5789 5788 5788 5787 5786 5784 5783 5781 5779 5777 5775 5774 5771 5768 5765 5763 5760 5758 5755 5752 5749 5746 5743 5740 5738 5735 5732 5730 5727 5724 5722 5720 5718 5716 5714 5712
5779 5779 5779 5779 5779 5779 5779 5778 5778 5777 5776 5775 5773 5772 5770 5768 5766 5763 5762 5760 5757 5755 5752 5750 5747 5745 5742 5739 5736 5734 5731 5728 5726 5723 5721 5719 5716 5714 5712 5710 5709 5707 5705
5768 5768 5768 5768 5768 5768 5768 5767 5767 5766 5765 5763 5762 5760 5759 5757 5755 5753 5750 5748 5746 5744 5742 5739 5737 5734 5732 5729 5726 5724 5721 5719 5717 5715 5712 5710 5708 5707 5705 5703 5701 5700 5698
5757 5757 5757 5757 5757 5757 5757 5756 5756 5754 5753 5752 5751 5749 5748 5746 5744 5742 5739 5737 5735 5733 5731 5729 5726 5723 5721 5719 5717 5714 5712 5710 5708 5706 5704 5702 5700 5699 5697 5696 5694 5693 5691
5745 5746 5746 5746 5746 5745 5745 5744 5744 5743 5742 5740 5739 5738 5736 5734 5732 5730 5728 5726 5724 5722 5721 5718 5716 5713 5711 5709 5707 5705 5703 5701 5699 5697 5696 5694 5692 5691 5689 5688 5687 5685 5684
5733 5734 5734 5734 5734 5734 5733 5732 5732 5731 5730 5729 5727 5726 5724 5723 5721 5719 5717 5715 5712 5711 5709 5708 5706 5703 5701 5699 5697 5695 5694 5692 5690 5689 5687 5686 5685 5683 5682 5680 5679 5678 5677
5721 5721 5722 5722 5722 5722 5721 5720 5720 5719 5718 5716 5715 5714 5712 5711 5709 5707 5705 5703 5701 5700 5698 5697 5695 5693 5691 5689 5688 5686 5685 5683 5682 5680 5679 5678 5677 5675 5674 5673 5672 5670 5669
5709 5710 5710 5710 5710 5709 5709 5708 5707 5706 5705 5704 5703 5702 5700 5699 5698 5696 5694 5692 5691 5689 5687 5686 5685 5683 5681 5680 5679 5677 5676 5675 5673 5672 5671 5670 5669 5668 5666 5665 5664 5663 5662
5698 5698 5698 5698 5698 5697 5697 5696 5695 5695 5694 5692 5691 5690 5689 5687 5686 5684 5683 5681 5679 5678 5676 5675 5674 5673 5672 5671 5670 5668 5667 5666 5665 5664 5663 5662 5661 5660 5659 5657 5656 5655 5654
5686 5686 5686 5686 5686 5686 5685 5684 5684 5683 5682 5680 5679 5678 5677 5675 5674 5673 5671 5670 5668 5667 5666 5665 5664 5663 5662 5661 5660 5659 5659 5658 5657 5656 5655 5654 5653 5652 5651 5650 5648 5647 5645
5674 5675 5675 5675 5674 5674 5673 5673 5672 5671 5670 5669 5668 5666 5665 5664 5663 5661 5660 5659 5658 5657 5656 5655 5654 5653 5652 5652 5651 5651 5650 5649 5649 5648 5647 5646 5645 5644 5643 5641 5640 5638 5637
5663 5664 5664 5664 5663 5663 5662 5661 5661 5660 5659 5657 5656 5655 5654 5653 5652 5650 5649 5648 5647 5647 5646 5645 5644 5644 5644 5643 5642 5642 5641 5641 5640 5640 5639 5638 5637 5636 5634 5633 5631 5630 5628
5653 5653 5653 5653 5652 5652 5651 5651 5650 5649 5647 5646 5645 5644 5643 5642 5641 5640 5639 5638 5637 5637 5636 5636 5636 5635 5635 5634 5634 5634 5633 5632 5632 5631 5630 5630 5629 5627 5626 5624 5622 5620 5618
5642 5642 5642 5642 5642 5641 5640 5640 5639 5637 5636 5635 5634 5633 5633 5632 5631 5630 5629 5628 5628 5628 5627 5627 5627 5626 5626 5626 5626 5625 5624 5624 5623 5623 5622 5621 5620 5619 5617 5615 5613 5611 5609
5631 5631 5631 5631 5631 5630 5630 5629 5628 5627 5626 5625 5624 5623 5623 5622 5621 5620 5620 5619 5619 5619 5618 5618 5618 5618 5617 5617 5617 5617 5616 5615 5615 5614 5613 5612 5611 5609 5608 5606 5603 5601 5599
5621 5621 5621 5620 5620 5620 5619 5618 5618 5617 5616 5615 5614 5614 5613 5613 5612 5611 5611 5610 5610 5610 5610 5609 5609 5609 5609 5609 5608 5608 5607 5607 5606 5605 5604 5603 5601 5600 5598 5596 5594 5591 5588